Flag for U.S.A. Weather past 2 weeks in Kalamazoo, Michigan, U.S.A.

Now
35 °F

Clear.


Feels Like: 29 °F
Forecast: 34 / 63 °F
Wind: 7 mph from South

Location: Kalamazoo / Battle Creek International Airport

Current Time: Apr 1, 2015 at 4:10:25 AM

Latest Report: Apr 1, 2015 at 2:53 AM


Visibility: 10 mi

Pressure: 29.97 "Hg

Humidity: 78%

Dew point: 29 °F

Location of KalamazooLocation

Historic Weather in Kalamazoo — Graph

°F

Kalamazoo temperature yesterday

Maximum temperature yesterday: 53 °F (at 5:53 PM)
Minimum temperature yesterday: 9 °F (at 6:53 PM)
Average temperature yesterday: 42 °F

Past Weeks' High & Low Weather Summary

 TemperatureHumidityPressure
High55 °F (Mar 30, 4:53 PM)93% (Mar 25, 8:53 AM)30.38 "Hg (Mar 25, 8:53 AM)
Low9 °F (Mar 31, 6:53 PM)21% (Mar 28, 4:53 PM)29.67 "Hg (Mar 31, 6:53 AM)
Average35 °F56%30.14 "Hg
* Reported Mar 17 2:53 AM — Apr 1 2:53 AM, Kalamazoo, Weather by CustomWeather, © 2015

Note: Actual official high and low records may vary slightly from our data, if they occured in-between our weather recording intervals... More about our weather records

Advertising

Kalamazoo weather history for previous 24 hours

 ConditionsComfort  
Time TempWeatherWind HumidityBarometerVisibility
2:53 AM
Wed, Apr 1
35 °FClear.7 mph78%29.97 "Hg10 mi
1:53 AM37 °FPassing clouds.6 mph76%29.98 "Hg10 mi
12:53 AM36 °FClear.5 mph73%29.98 "Hg10 mi
11:53 PM
Tue, Mar 31
36 °FClear.7 mph73%29.98 "Hg10 mi
10:53 PM39 °FClear.3 mph67%29.98 "Hg10 mi
9:53 PM38 °FClear.No wind63%29.99 "Hg10 mi
8:53 PM42 °FSunny.6 mph51%30.00 "Hg10 mi
7:53 PM47 °FSunny.12 mph41%29.98 "Hg10 mi
6:53 PM9 °FSunny.13 mph58%29.97 "Hg10 mi
5:53 PM53 °FScattered clouds.13 mph41%29.92 "Hg10 mi
4:53 PM52 °FScattered clouds.8 mph43%29.92 "Hg10 mi
4:00 PM50 °FPartly sunny.7 mph54%29.92 "Hg10 mi
2:53 PMN/APartly sunny.12 mphN/A29.92 "Hg10 mi
1:53 PM45 °FMostly cloudy.13 mph68%29.93 "Hg10 mi
12:53 PM44 °FOvercast.10 mph71%29.90 "Hg10 mi
11:53 AM41 °FOvercast.13 mph80%29.89 "Hg10 mi
10:53 AM40 °FLow clouds.14 mph86%29.83 "Hg10 mi
9:53 AM40 °FLow clouds.9 mph89%29.80 "Hg7 mi
8:53 AM39 °FFog.9 mph93%29.74 "Hg1 mi
8:00 AM41 °FFog.10 mph93%N/A3 mi
6:53 AM40 °FPassing clouds.6 mph89%29.67 "Hg9 mi
5:53 AM42 °FPartly cloudy.No wind85%N/A10 mi
4:53 AM43 °FQuite cool.N/A82%N/A10 mi
Weather by CustomWeather, © 2015

See weather overviewHow to use our weather pages